Regional Weather Roundup
Issued by NWS

Home | Current Version | Previous Version | Text Only | Print | Product List | Glossary On
Versions: 1 2 3 4 5 6 7 8 9 10 11 12 13 14 15 16 17 18 19 20 21 22 23 24 25 26 27
000
ASUS45 KBOU 241006
RWRCO

WEATHER ROUNDUP FOR COLORADO
NATIONAL WEATHER SERVICE DENVER/BOULDER CO
400 AM MDT THU APR 24 2014

NOTE: "FAIR" INDICATES FEW OR NO CLOUDS BELOW 12000 FEET WITH NO
SIGNIFICANT WEATHER AND/OR OBSTRUCTIONS TO VISIBILITY.

COZ001>005-013-030-031-241100-
...NORTHWEST COLORADO...

CITY           SKY/WX    TMP DP  RH WIND       PRES   REMARKS
CRAIG          CLEAR     22  17  81 E5        30.10S WCI  16
HAYDEN         CLEAR     27  14  59 CALM      30.11S
MEEKER         CLEAR     24  16  71 N3        30.12R
MOUNT WERNER   CLEAR     19  10  68 W17       30.08R WCI   4
STEAMBOAT SPGS CLEAR     27  15  60 E3        30.10S
WALDEN         CLEAR     21  12  68 CALM      30.05R
$$

COZ006>008-011-241100-
...WEST CENTRAL VALLEYS...

CITY           SKY/WX    TMP DP  RH WIND       PRES   REMARKS
GRAND JUNCTION CLEAR     34  11  38 S3        30.09R
MONTROSE       CLEAR     33  14  45 SE10      30.13R WCI  25
EAGLE          CLEAR     27  18  69 E6        30.13S WCI  20
RIFLE          CLEAR     28  14  55 S6        30.10S WCI  22
DELTA          NOT AVBL
NUCLA          NOT AVBL
$$

COZ017>023-064>068-241100-
...SOUTHWEST COLORADO...

CITY           SKY/WX    TMP DP  RH WIND       PRES   REMARKS
DURANGO        CLEAR     31   9  39 W5        30.04R WCI  26
CORTEZ         CLEAR     28  13  53 E5        30.09R WCI  23
PAGOSA SPRINGS CLEAR     27  13  55 CALM      30.06R
TELLURIDE      PTCLDY    28  10  47 CALM      30.12R
WOLF CREEK PAS CLEAR     19  -8  30 NW7G18    30.09R WCI  10
$$

COZ009-010-012-014-032>034-037-058>063-241100-
...CENTRAL COLORADO...

CITY           SKY/WX    TMP DP  RH WIND       PRES   REMARKS
ASPEN          CLEAR     25  13  60 S5        30.09R WCI  19
BUENA VISTA    CLEAR     32   9  38 NW14      30.02R WCI  22
COPPER MTN     CLEAR     16   9  73 W21       30.08R WCI  -2
BERTHOUD PASS  FAIR       5  -4  66 NW38      29.98R WCI -21
COTTONWOOD PAS CLEAR     32   3  29 W20G37    30.03R WCI  20
GUNNISON       CLEAR     30   9  40 SW3       30.12R
KREMMLING      CLEAR     32  10  40 W9        30.12R WCI  24
LEADVILLE      PTCLDY    20   7  57 N10       30.07R WCI   9
MONARCH PASS   CLEAR     16   9  73 W48       30.11F WCI  -8
SALIDA         CLEAR     33   9  36 CALM      30.09R
SUNLIGHT       CLEAR     21  12  68 CALM      30.12S
WILKERSON PASS CLEAR     19   5  53 W8        30.05S WCI   9
$$

COZ069>075-241100-
...SAN LUIS VALLEY/SANGRE DE CRISTO MOUNTAINS...

CITY           SKY/WX    TMP DP  RH WIND       PRES   REMARKS
ALAMOSA        CLEAR     32  11  41 N6        30.04R WCI  26
LA VETA PASS   MOCLDY    23  19  86 CALM      30.06R
SAGUACHE       CLEAR     32   7  34 N14       30.04S WCI  22
$$

COZ035-036-038>040-241100-
...NORTHERN COLORADO FRONT RANGE...

CITY           SKY/WX    TMP DP  RH WIND       PRES   REMARKS
DENVER INTL AP PTCLDY    38  20  48 N14       29.99R
DMNS CITY PARK   N/A     40  34  80 NE3       29.99R
AURORA         MOCLDY    39  32  75 N6        30.00R
FRONT RANGE AP NOT AVBL
ERIE MUNI ARPT CLEAR     38  25  59 NE6       29.98S
BOULDER MUN AP CLEAR     41  34  75 S3        29.97R
CENTENNIAL     CLEAR     34  32  92 E6        30.00R WCI  29
BROOMFIELD     CLEAR     37  36  93 CALM      29.99S
FORT COLLINS   CLEAR     39  16  38 N18       29.99S
LONGMONT       NOT AVBL
$$

COZ041-046-047-076>085-087-088-241100-
...PIKES PEAK/PALMER DIVIDE AND SOUTHERN FOOTHILLS...

CITY           SKY/WX    TMP DP  RH WIND       PRES   REMARKS
COLO. SPRINGS  CLEAR     34  26  72 N6        29.99S WCI  29
A. F. ACADEMY  CLEAR     32  32  99 NE2       29.99R
ELLICOTT       NOT AVBL
FALCON         CLEAR     33  26  77 N9        30.00R WCI  25
FORT CARSON    CLEAR     32  28  86 NW7       29.99R WCI  26
LIMON          CLOUDY    35  26  69 N10       29.97R WCI  27
MONUMENT HILL  CLEAR     28  27  93 CALM      29.99R
TRINIDAD       CLOUDY    39  32  76 NW5       30.03R
$$

COZ042>045-048>051-090-091-241100-
...NORTHEAST COLORADO...

CITY           SKY/WX    TMP DP  RH WIND       PRES   REMARKS
GREELEY ARPT   CLEAR     39  10  30 N16       29.99R
AKRON          CLOUDY    41  16  36 NW22G30   29.93R
BURLINGTON     CLOUDY    49  28  44 N18G28    29.87S
WRAY           CLOUDY    49  36  60 NW12      29.89R
STERLING       NOT AVBL
HOLYOKE        NOT AVBL
FORT MORGAN    NOT AVBL
$$

COZ086-089-092>099-241100-
...SOUTHEAST COLORADO...

CITY           SKY/WX    TMP DP  RH WIND       PRES   REMARKS
PUEBLO         CLEAR     41  32  70 W5        29.99R
LA JUNTA       CLOUDY    45  38  76 W12       29.97R
LAMAR          CLOUDY    45  35  68 NE9       29.89F
SPRINGFIELD      N/A     39  37  92 N28G40    29.94R
$$



USA.gov is the U.S. government's official web portal to all federal, state and local government web resources and services.